Wind_Speed
14 14 14 15 16 17 17 16 5 33 29 43 35 30 40 35 34 31 37 42 10 29 20 17 18 17 16 16 17 13 13 11 12 12 11 8 10 11 10 11 10 9 12 15 19 18 15 22 20
10 11 10 11 11 10 3 4 29 38 32 45 30 31 36 37 36 35 37 34 31 6 19 20 19 18 16 16 18 15 15 12 12 12 11 11 11 9 11 10 7 12 15 21 24 21 17 22 24
9 8 7 8 9 14 10 24 31 35 37 38 36 38 36 41 38 35 35 42 38 46 19 18 19 19 18 18 19 16 16 13 11 12 11 12 12 10 12 12 12 12 19 17 20 25 27 23 26
9 9 9 6 6 9 25 30 37 37 39 47 43 43 43 43 41 39 38 35 39 36 29 21 23 22 21 20 19 19 18 16 13 13 11 12 14 12 13 16 13 15 21 20 21 28 28 27 26
11 10 9 8 12 25 31 43 45 41 43 39 37 37 44 44 43 44 43 37 37 38 31 28 20 25 22 22 19 18 16 17 16 14 12 12 15 15 14 16 16 16 20 21 22 27 27 28 26
13 11 8 3 12 33 38 41 42 44 36 37 32 35 37 40 38 43 44 39 37 39 41 32 25 23 23 21 20 19 17 16 18 18 14 13 15 16 16 18 16 15 23 23 23 27 29 28 27
10 10 11 13 14 23 38 34 33 35 36 34 32 39 35 36 43 43 40 41 42 42 28 35 31 25 24 22 19 20 19 17 17 18 18 15 15 18 20 22 21 15 23 26 26 27 28 28 26
11 10 11 11 18 28 39 37 34 36 33 34 36 40 38 38 39 40 43 43 44 44 38 28 31 29 26 23 22 22 19 19 19 19 19 18 19 19 21 22 19 26 25 28 27 28 28 27 26
13 11 7 21 26 38 36 33 36 32 36 36 35 40 40 39 40 42 42 43 43 42 43 36 32 29 25 28 27 25 23 22 22 21 20 20 20 20 23 24 13 26 28 31 28 30 29 28 27
18 12 25 29 37 39 40 34 38 39 36 34 38 41 42 42 42 42 43 43 44 43 41 36 37 35 27 31 29 24 24 24 24 23 20 21 19 20 24 23 22 6 30 30 28 31 28 28 28
21 20 26 29 29 35 46 38 36 40 42 37 40 43 43 45 44 46 45 44 45 43 44 41 39 45 39 35 29 25 24 24 23 23 21 20 18 20 25 24 22 10 17 34 28 27 28 30 29
24 21 24 30 29 34 38 46 38 40 46 44 44 44 46 46 48 47 48 47 46 45 43 42 36 40 42 34 32 30 28 27 25 22 21 19 20 21 22 22 21 20 7 25 28 31 29 30 29
29 33 31 31 33 34 36 41 45 41 46 48 48 49 49 50 50 49 51 51 49 46 46 44 45 36 31 36 32 26 24 28 28 24 23 21 21 21 21 20 27 17 17 21 33 33 32 30 28
33 37 41 39 40 41 37 44 44 47 45 51 52 53 53 54 54 52 52 54 53 51 48 46 45 47 43 40 36 32 28 25 32 31 25 22 21 22 20 20 29 9 6 15 30 30 34 32 30
37 39 40 46 46 48 42 47 51 53 54 52 54 56 58 58 59 57 55 55 55 55 49 49 48 48 45 42 30 32 37 32 27 30 27 23 22 20 19 22 24 24 7 16 26 28 30 34 32
45 43 38 25 40 60 54 54 58 60 58 58 58 59 60 61 63 63 60 60 56 56 54 53 52 52 48 45 42 42 40 36 38 31 28 28 25 26 21 23 26 26 24 23 25 33 32 36 34
33 39 42 42 46 50 53 52 59 61 64 64 64 64 65 65 66 66 66 65 63 59 55 57 56 55 53 51 48 48 46 40 38 38 34 35 29 25 25 25 25 27 24 21 29 39 35 36 38
50 51 57 63 60 48 45 44 52 63 60 63 65 67 71 71 68 70 70 70 68 67 59 58 60 61 58 57 55 53 51 51 45 41 41 37 36 30 27 28 28 30 31 22 19 23 34 37 39
51 55 58 58 54 53 48 42 40 55 53 57 57 61 69 74 76 74 75 73 74 73 68 63 61 64 63 61 59 58 57 55 52 47 46 45 42 38 29 30 32 33 28 26 20 28 34 33 41
56 57 56 50 51 47 29 21 41 44 43 40 46 53 60 67 75 79 78 79 75 77 74 70 66 65 66 65 64 62 60 59 57 54 50 51 49 46 39 31 34 34 32 30 20 21 26 41 41
56 58 53 50 35 21 17 31 32 35 34 31 38 39 39 50 66 75 82 83 83 79 78 75 72 69 67 68 68 66 63 62 59 58 57 55 55 51 45 38 36 38 36 32 29 22 26 30 33
57 55 50 45 22 20 10 23 25 29 37 35 33 37 37 36 38 55 75 83 87 86 81 79 76 74 71 69 70 70 68 66 63 61 59 57 56 54 49 43 41 40 38 37 36 25 30 25 27
60 55 51 39 16 18 11 20 29 31 31 36 40 42 42 40 38 35 44 67 82 90 88 83 80 78 76 72 72 73 71 70 68 64 62 58 57 55 51 48 47 45 40 40 40 39 29 26 25
63 58 52 30 22 19 27 19 30 30 31 38 36 37 38 38 31 30 28 36 59 77 89 88 84 80 79 77 74 75 75 73 71 69 66 62 59 58 56 52 50 49 44 41 43 44 42 19 28
62 62 59 50 33 17 19 28 32 35 37 39 41 40 34 32 29 25 25 23 29 48 70 87 88 85 82 79 77 77 78 76 74 71 69 66 61 59 59 55 54 51 47 43 43 46 47 36 29
60 60 57 52 42 28 28 24 27 33 35 29 35 36 36 35 32 30 28 23 18 24 42 57 80 89 86 82 80 78 79 79 77 74 71 69 66 63 61 58 56 55 50 47 44 43 45 48 36
58 56 56 53 44 28 25 29 26 30 37 37 40 34 30 33 36 35 29 25 22 21 26 37 46 72 90 85 82 81 80 80 80 77 74 72 69 66 64 62 58 56 54 50 48 44 46 46 45
54 57 55 54 47 47 38 25 27 33 32 36 38 34 31 30 30 35 37 31 27 22 23 27 36 43 66 87 85 83 82 81 81 80 77 75 72 67 65 65 63 59 57 52 50 46 46 47 52
52 55 51 50 47 48 49 36 44 40 33 25 27 26 25 27 30 34 35 37 36 28 23 23 27 33 42 59 84 85 83 83 81 81 79 77 74 70 67 66 63 61 59 54 52 51 48 45 48
53 52 50 48 48 48 46 41 43 46 44 40 33 27 26 29 30 30 29 28 32 34 26 23 23 25 31 43 57 81 85 83 84 82 80 78 77 73 70 68 65 62 60 58 53 52 51 47 44
Wind_Direction
273 271 264 256 238 231 229 191 214 269 246 242 248 251 249 247 238 237 244 243 265 260 179 206 212 221 227 234 245 251 242 245 245 251 242 243 234 230 215 219 209 207 222 212 203 179 186 184 175
273 269 262 249 224 199 27 306 245 234 240 255 259 240 243 249 244 241 245 258 255 303 177 205 212 220 231 240 249 251 245 245 248 251 249 242 233 226 216 212 213 221 199 191 204 198 178 170 168
269 266 264 241 199 142 245 213 226 235 244 254 257 239 240 249 248 245 245 252 263 260 261 212 221 229 233 237 247 253 249 248 261 254 250 247 239 222 215 202 198 215 184 193 171 184 180 167 167
270 260 248 253 186 251 238 227 227 238 246 254 251 240 234 239 246 245 245 250 255 257 258 261 237 235 237 240 236 240 245 246 255 263 255 251 247 231 220 209 196 189 169 168 170 167 171 167 167
273 270 255 228 165 256 239 240 236 235 248 255 252 249 242 237 245 249 250 249 255 257 251 235 239 239 246 234 236 242 249 255 253 259 259 250 253 243 226 218 202 198 164 168 170 170 171 169 170
269 255 248 27 284 247 244 241 242 243 255 261 262 254 249 246 248 243 248 250 248 251 237 222 219 234 239 247 242 244 253 260 262 262 262 253 254 252 233 222 214 223 178 170 173 174 173 174 176
275 261 204 234 227 261 252 252 252 254 259 262 261 258 252 250 251 253 250 251 251 251 236 211 204 225 236 236 240 241 247 253 262 264 264 257 255 255 245 234 222 219 196 180 181 180 180 181 181
297 289 267 294 238 256 256 261 255 252 250 252 254 256 256 253 253 253 253 249 252 259 251 232 222 210 230 236 230 231 238 243 254 261 260 264 259 256 255 249 227 215 202 197 190 188 188 188 188
288 282 298 234 228 250 273 278 271 262 255 254 252 252 257 256 253 253 253 254 250 256 261 258 232 209 220 230 227 223 229 237 246 250 253 256 258 253 257 251 235 223 212 203 198 199 196 196 196
277 261 242 238 244 259 276 269 269 268 257 256 256 253 255 254 256 254 253 253 254 253 253 260 254 236 210 227 230 227 229 228 231 240 246 250 253 255 256 263 238 254 212 206 202 205 205 203 203
290 271 274 272 266 260 272 269 266 270 265 258 255 253 252 253 254 255 255 254 253 252 252 255 248 255 218 217 222 225 225 232 234 233 243 245 247 253 255 257 243 221 211 212 205 204 211 210 206
306 294 283 282 273 268 266 275 269 266 266 260 254 253 252 252 251 253 255 254 254 253 253 252 253 216 207 214 218 227 229 229 236 243 238 237 243 249 269 261 225 229 255 208 204 201 204 211 210
313 307 299 292 285 282 277 270 271 265 264 262 258 254 251 251 250 250 252 252 251 250 252 253 254 216 217 214 213 218 229 230 233 239 242 244 242 247 260 252 225 234 225 212 215 204 203 212 213
314 310 305 298 293 284 281 282 276 269 261 260 257 254 253 251 248 247 249 252 252 249 247 247 249 246 252 220 210 216 225 230 230 236 242 241 245 250 250 248 234 223 245 219 204 202 205 213 214
316 311 309 306 302 293 284 284 277 271 269 265 261 257 252 250 249 246 245 247 249 250 246 246 245 243 245 244 222 228 231 234 242 235 242 241 250 257 249 247 239 239 280 193 205 206 211 211 212
322 324 322 290 285 297 296 290 282 277 270 264 262 260 256 252 248 247 245 244 244 246 243 243 242 243 243 241 240 241 237 231 239 244 236 246 248 252 253 246 245 243 248 212 193 221 222 215 214
322 319 311 306 268 272 290 285 272 271 268 266 262 259 256 253 251 247 245 244 244 241 239 239 240 240 240 240 237 237 238 238 239 246 249 251 251 249 249 249 247 238 243 232 224 214 215 219 218
327 322 321 317 309 299 290 281 271 273 268 263 260 256 253 251 248 248 244 244 242 242 237 234 235 238 237 238 237 235 235 237 239 244 248 248 250 253 250 247 249 234 245 232 196 207 218 223 223
335 329 323 315 308 298 293 281 260 260 265 268 264 257 253 249 247 244 245 242 242 240 237 234 230 233 235 236 236 236 237 236 238 239 243 246 247 247 245 245 249 246 244 244 216 214 221 229 227
341 337 327 319 310 299 290 260 254 268 275 271 266 260 254 251 246 242 241 242 238 242 237 233 231 229 231 232 235 234 236 237 237 237 238 241 245 247 247 239 242 250 243 249 230 226 229 227 233
348 344 336 333 328 332 281 257 266 277 284 293 297 290 279 261 250 246 241 238 240 237 239 236 231 230 228 228 232 234 233 235 235 236 237 238 244 248 246 239 239 246 246 251 244 255 244 239 239
355 351 350 353 327 319 290 245 266 284 291 296 295 296 297 297 284 257 245 241 238 238 235 238 235 230 228 226 228 231 233 234 233 233 236 236 239 244 245 240 238 242 243 244 245 234 236 245 248
360 1 0 3 339 310 286 261 274 278 289 286 294 296 291 291 290 287 265 249 242 237 236 235 235 233 229 226 226 229 230 232 233 233 233 235 236 239 241 241 237 240 239 241 242 239 244 239 240
1 5 9 10 339 315 300 242 291 298 288 294 300 298 289 285 283 280 280 265 251 244 238 235 234 233 232 227 225 227 230 231 232 232 233 233 234 237 239 240 239 239 241 240 238 244 245 242 228
2 5 11 13 16 338 311 299 299 303 301 304 296 294 285 287 284 284 277 282 267 250 245 238 234 233 231 231 227 225 227 230 232 231 233 234 233 234 238 238 239 239 241 243 242 241 251 246 247
5 9 9 9 9 360 331 318 304 300 303 304 308 307 296 291 289 286 280 278 281 258 247 247 240 234 232 229 230 226 225 227 230 231 232 233 233 232 235 237 237 241 240 240 244 242 246 248 253
6 11 11 10 14 4 346 331 323 307 314 312 310 305 301 297 287 284 281 273 268 272 252 244 245 241 233 231 229 229 225 226 227 230 231 232 234 233 234 237 236 237 241 240 242 243 241 249 250
6 9 12 11 11 6 10 342 340 333 317 311 314 304 296 298 298 292 280 274 268 266 256 247 243 241 241 234 230 229 228 225 226 228 229 231 233 233 234 235 237 236 238 240 240 242 243 242 250
5 8 12 15 11 4 8 5 356 340 348 325 319 318 314 307 303 302 293 278 269 264 261 241 241 243 239 239 235 229 228 227 226 227 228 229 232 233 233 235 237 237 236 238 238 242 244 248 248
4 9 11 14 14 10 9 3 1 354 341 330 320 314 312 310 310 308 310 306 272 256 255 248 240 240 247 241 239 236 229 228 228 228 228 227 230 232 232 234 236 238 237 237 237 238 241 245 249
Height
5811 5812 5812 5813 5817 5818 5822 5828 5834 5825 5821 5814 5825 5828 5824 5824 5826 5828 5822 5812 5822 5808 5811 5822 5822 5826 5830 5832 5834 5834 5834 5836 5836 5837 5838 5838 5839 5838 5838 5838 5838 5838 5838 5840 5844 5847 5849 5852 5854
5809 5810 5810 5811 5813 5816 5824 5830 5825 5814 5810 5814 5825 5824 5815 5816 5821 5823 5820 5819 5818 5782 5802 5816 5821 5824 5827 5830 5832 5832 5833 5835 5835 5835 5837 5837 5837 5838 5838 5837 5837 5836 5837 5840 5842 5844 5849 5851 5855
5808 5808 5809 5810 5811 5815 5824 5816 5808 5808 5811 5814 5815 5815 5814 5811 5815 5818 5819 5814 5814 5813 5806 5809 5815 5819 5822 5826 5829 5830 5831 5833 5834 5834 5835 5836 5836 5836 5837 5837 5836 5835 5836 5840 5840 5843 5848 5851 5855
5805 5807 5807 5809 5810 5818 5812 5805 5802 5806 5805 5804 5803 5806 5806 5807 5808 5812 5813 5812 5811 5811 5810 5814 5816 5816 5819 5824 5827 5829 5829 5830 5832 5833 5833 5834 5836 5835 5835 5835 5835 5836 5835 5838 5840 5844 5847 5851 5854
5802 5803 5804 5806 5810 5808 5806 5800 5800 5800 5798 5798 5798 5802 5803 5805 5805 5805 5807 5809 5808 5806 5808 5809 5813 5816 5818 5820 5825 5827 5829 5829 5830 5830 5832 5832 5834 5835 5834 5835 5834 5835 5834 5838 5841 5844 5847 5851 5854
5799 5800 5802 5807 5811 5800 5798 5795 5796 5794 5795 5796 5798 5796 5799 5801 5800 5801 5801 5804 5804 5801 5801 5802 5808 5813 5816 5819 5821 5824 5826 5827 5828 5829 5830 5830 5832 5833 5833 5832 5833 5835 5834 5837 5842 5844 5848 5851 5853
5796 5796 5797 5800 5803 5794 5787 5788 5789 5791 5793 5794 5793 5787 5793 5794 5794 5796 5797 5798 5798 5795 5795 5796 5801 5809 5813 5814 5817 5820 5822 5825 5825 5826 5828 5828 5829 5830 5831 5830 5832 5834 5835 5835 5841 5844 5847 5850 5852
5793 5794 5795 5797 5797 5784 5780 5781 5781 5781 5785 5786 5786 5783 5786 5787 5787 5789 5789 5792 5791 5791 5793 5797 5797 5801 5808 5811 5812 5816 5818 5820 5822 5823 5824 5826 5827 5827 5828 5828 5829 5832 5834 5835 5839 5842 5846 5848 5851
5789 5791 5791 5787 5784 5777 5777 5777 5774 5777 5777 5778 5779 5777 5777 5780 5781 5781 5782 5783 5785 5786 5787 5791 5795 5795 5801 5806 5806 5809 5812 5815 5817 5819 5821 5822 5823 5824 5825 5825 5826 5829 5831 5833 5837 5841 5844 5847 5850
5784 5785 5779 5781 5780 5775 5771 5772 5768 5767 5770 5773 5771 5770 5769 5771 5771 5773 5774 5775 5777 5779 5783 5786 5789 5792 5795 5801 5804 5804 5806 5808 5811 5813 5816 5818 5819 5820 5821 5822 5822 5823 5828 5831 5834 5838 5842 5846 5849
5778 5778 5775 5774 5778 5774 5759 5763 5765 5760 5759 5762 5760 5760 5761 5762 5763 5762 5765 5767 5768 5772 5775 5778 5782 5785 5789 5793 5797 5798 5799 5804 5806 5808 5811 5813 5816 5816 5817 5817 5820 5822 5825 5828 5831 5835 5841 5844 5847
5772 5772 5769 5766 5767 5763 5759 5749 5755 5753 5747 5750 5750 5750 5751 5752 5754 5755 5755 5757 5760 5763 5766 5770 5772 5774 5780 5786 5790 5793 5795 5798 5802 5803 5806 5808 5811 5812 5813 5814 5816 5818 5819 5823 5828 5832 5837 5842 5844
5766 5761 5761 5759 5755 5752 5748 5744 5740 5744 5738 5737 5737 5738 5739 5740 5742 5745 5745 5746 5750 5754 5758 5762 5767 5770 5777 5780 5782 5784 5790 5793 5796 5799 5800 5804 5805 5807 5809 5811 5811 5812 5814 5818 5823 5828 5832 5838 5841
5759 5754 5748 5746 5743 5740 5740 5730 5729 5727 5728 5724 5724 5726 5726 5727 5729 5733 5735 5736 5738 5743 5750 5754 5758 5764 5766 5772 5776 5778 5783 5785 5788 5791 5795 5797 5799 5802 5805 5806 5807 5808 5809 5813 5815 5824 5829 5833 5838
5751 5746 5738 5730 5727 5722 5727 5715 5714 5713 5710 5712 5712 5712 5713 5714 5715 5720 5723 5725 5727 5731 5739 5742 5748 5755 5759 5762 5767 5773 5777 5780 5781 5784 5789 5792 5795 5797 5801 5802 5802 5804 5805 5808 5814 5821 5826 5829 5833
5738 5734 5731 5725 5713 5703 5709 5696 5689 5691 5692 5693 5695 5696 5697 5699 5701 5704 5709 5712 5716 5719 5728 5732 5738 5744 5749 5755 5760 5766 5770 5773 5775 5776 5782 5785 5788 5792 5795 5797 5797 5799 5802 5806 5810 5816 5822 5825 5829
5730 5729 5724 5719 5707 5697 5690 5686 5669 5669 5670 5673 5676 5678 5678 5681 5684 5688 5694 5698 5702 5706 5714 5721 5727 5732 5738 5744 5750 5757 5762 5766 5769 5771 5775 5779 5783 5785 5789 5792 5793 5795 5797 5801 5805 5810 5817 5820 5824
5723 5714 5703 5691 5683 5672 5673 5671 5654 5637 5648 5653 5655 5655 5655 5659 5665 5669 5675 5680 5686 5690 5700 5706 5715 5720 5727 5732 5739 5746 5752 5757 5762 5766 5768 5772 5776 5780 5783 5785 5788 5789 5792 5796 5798 5804 5812 5815 5819
5714 5704 5692 5678 5665 5652 5649 5647 5631 5621 5633 5632 5633 5634 5633 5637 5642 5650 5655 5661 5666 5672 5683 5691 5699 5707 5714 5721 5727 5734 5740 5747 5751 5757 5761 5764 5767 5773 5776 5781 5785 5784 5787 5791 5794 5800 5804 5808 5812
5702 5690 5676 5663 5648 5635 5631 5633 5619 5617 5619 5618 5615 5614 5615 5615 5618 5625 5634 5638 5649 5652 5663 5673 5682 5690 5699 5707 5714 5721 5728 5734 5740 5747 5752 5756 5759 5764 5770 5774 5778 5780 5782 5786 5791 5794 5798 5803 5805
5692 5677 5661 5645 5630 5626 5624 5618 5615 5614 5610 5611 5608 5604 5601 5599 5600 5603 5608 5618 5624 5634 5643 5654 5665 5673 5683 5692 5700 5707 5715 5721 5729 5735 5742 5747 5751 5755 5762 5768 5772 5773 5778 5782 5784 5789 5793 5796 5799
5687 5672 5654 5637 5628 5624 5620 5617 5612 5608 5604 5602 5600 5597 5593 5591 5587 5586 5587 5595 5602 5611 5625 5634 5645 5655 5666 5677 5685 5692 5700 5708 5715 5723 5730 5736 5742 5746 5752 5759 5764 5766 5771 5776 5779 5781 5786 5789 5792
5680 5664 5648 5632 5626 5621 5618 5615 5608 5604 5601 5596 5592 5588 5586 5583 5580 5577 5574 5575 5581 5590 5602 5614 5626 5637 5649 5660 5669 5677 5685 5693 5701 5709 5717 5725 5732 5736 5741 5748 5754 5757 5762 5768 5771 5773 5776 5781 5784
5674 5663 5648 5633 5624 5619 5614 5609 5601 5598 5594 5591 5585 5581 5577 5575 5572 5569 5566 5563 5565 5571 5580 5592 5605 5618 5630 5642 5653 5662 5670 5678 5686 5695 5704 5712 5720 5726 5731 5737 5743 5749 5753 5759 5763 5766 5769 5773 5776
5673 5659 5641 5629 5618 5616 5610 5605 5599 5593 5587 5582 5579 5573 5569 5566 5564 5562 5559 5557 5555 5558 5562 5571 5583 5596 5610 5623 5635 5645 5655 5663 5671 5681 5691 5699 5708 5715 5720 5727 5733 5739 5744 5750 5754 5759 5761 5766 5770
5666 5649 5635 5625 5617 5611 5605 5601 5596 5588 5582 5577 5573 5567 5561 5557 5555 5554 5553 5551 5550 5548 5551 5555 5563 5575 5589 5603 5615 5628 5639 5647 5656 5666 5676 5685 5695 5704 5709 5716 5723 5728 5735 5741 5745 5751 5754 5759 5763
5667 5654 5641 5631 5618 5612 5605 5596 5588 5579 5577 5572 5566 5560 5556 5551 5549 5547 5546 5545 5545 5543 5542 5544 5548 5556 5568 5584 5598 5610 5622 5632 5641 5651 5662 5671 5680 5691 5698 5704 5713 5719 5724 5731 5737 5743 5747 5750 5755
5667 5656 5645 5632 5616 5608 5603 5594 5588 5581 5574 5567 5561 5554 5550 5547 5543 5540 5537 5537 5537 5537 5537 5536 5539 5543 5551 5562 5578 5591 5604 5616 5626 5636 5647 5658 5667 5678 5686 5692 5700 5708 5714 5721 5727 5733 5738 5742 5745
5668 5655 5643 5631 5620 5613 5599 5593 5582 5576 5569 5562 5556 5551 5546 5542 5538 5533 5529 5527 5527 5529 5530 5531 5532 5535 5540 5546 5558 5573 5586 5600 5611 5621 5632 5644 5654 5664 5674 5680 5688 5696 5703 5710 5718 5723 5729 5733 5738
5668 5654 5642 5632 5626 5615 5599 5592 5581 5569 5560 5555 5551 5547 5542 5537 5532 5527 5522 5517 5515 5517 5522 5524 5526 5529 5532 5536 5542 5553 5567 5582 5596 5606 5618 5630 5641 5650 5661 5668 5676 5683 5691 5699 5707 5714 5719 5725 5727